Temperature
19 17 17 18 18 19 19 19 19 19 20 19 18 18 18 18 18 18 18 19 19 20 20 20 19 19 18 18 18 17 17 16 16 16 16 16 16 16 16 15 15 15 15 15
17 17 18 19 19 19 19 19 19 19 19 19 18 18 18 18 18 18 18 19 20 20 20 19 19 19 18 18 18 17 17 17 16 16 16 16 16 15 15 15 15 15 15 15
18 18 19 19 19 19 19 18 19 19 19 19 19 18 18 18 18 19 19 19 19 20 20 19 19 19 18 18 18 17 17 17 16 16 16 16 16 15 15 15 15 15 15 15
18 19 19 19 19 19 18 19 19 19 18 17 18 16 17 17 17 17 18 19 19 19 19 19 19 19 18 18 18 18 17 17 16 16 16 16 16 16 15 15 15 15 15 15
18 19 19 19 19 19 19 19 19 18 18 17 17 16 16 16 17 17 18 19 19 19 19 19 19 19 19 18 18 17 17 17 16 16 16 16 16 16 15 15 15 15 15 15
18 19 19 19 19 19 19 18 17 15 15 16 17 16 16 16 17 18 18 19 19 20 19 19 19 19 18 18 18 17 17 17 16 16 16 16 16 15 15 15 15 15 15 15
18 18 19 20 19 18 18 16 16 16 15 15 16 16 16 17 17 17 18 19 20 19 19 19 19 19 18 18 18 17 17 17 16 16 16 16 15 15 15 15 15 15 15 15
17 17 18 19 19 18 17 17 16 16 15 15 16 15 16 18 18 18 19 19 19 19 19 19 19 19 18 18 18 17 17 17 16 16 16 16 15 15 15 15 15 15 15 15
16 16 18 19 19 18 17 16 16 15 15 15 15 15 16 18 18 18 18 19 19 19 19 19 19 19 18 18 18 17 17 17 16 16 16 16 16 16 15 15 15 15 15 15
16 16 17 18 18 18 17 15 14 15 15 15 16 16 16 18 18 17 17 18 18 19 19 19 19 18 18 18 17 17 17 17 16 16 16 16 16 16 15 15 15 15 15 15
16 16 16 17 17 17 17 16 14 13 14 14 15 15 17 17 17 17 17 18 18 18 18 19 19 18 18 18 17 17 17 17 16 16 16 16 16 16 15 15 15 15 15 15
15 14 15 16 17 17 17 16 15 15 14 13 14 15 17 17 17 17 18 18 18 18 18 18 18 18 18 17 17 17 17 17 16 16 16 16 16 16 15 15 15 15 15 15
15 14 14 15 16 16 17 16 15 14 13 13 14 16 17 16 17 18 18 18 18 18 18 18 18 18 18 17 17 17 17 16 16 16 16 16 16 16 16 15 15 15 15 15
15 13 14 15 15 15 16 16 15 14 14 13 14 16 17 17 16 17 18 18 18 18 18 18 18 18 18 17 17 17 17 16 16 16 16 16 16 16 16 15 15 15 15 15
14 14 14 15 16 16 16 16 15 15 14 14 15 15 17 16 16 17 18 18 18 17 18 18 18 18 18 17 17 17 17 16 16 16 16 16 16 16 16 15 15 15 15 15
12 13 14 15 15 15 16 16 16 16 15 15 15 16 16 17 17 17 17 17 17 17 17 18 18 18 18 17 17 17 17 16 16 16 16 16 16 16 16 15 15 15 15 15
11 12 13 13 14 15 15 16 16 16 16 16 16 16 16 16 16 17 17 18 18 18 18 18 18 18 18 18 17 17 17 16 16 16 16 16 16 16 16 15 15 15 15 15
11 11 11 12 14 14 15 16 16 16 16 16 16 16 16 17 18 18 18 18 18 18 18 18 18 18 18 18 17 17 17 16 16 16 16 16 16 16 15 15 15 15 15 15
11 11 10 11 12 13 15 16 16 16 16 16 16 16 17 17 17 17 18 19 19 19 19 18 18 18 18 18 17 17 17 17 16 16 16 16 15 15 15 15 15 15 15 15
10 11 10 11 12 13 15 16 17 16 15 16 16 16 16 16 15 16 19 19 18 18 18 18 18 18 18 18 17 17 17 17 16 16 16 16 15 15 15 15 15 15 15 15
11 10 10 11 12 12 14 16 16 15 15 16 17 17 16 16 16 18 18 18 18 18 18 18 18 18 18 17 17 17 17 17 16 16 16 16 16 15 15 15 15 15 15 15
11 11 10 10 11 12 15 15 15 15 17 17 17 17 17 17 18 18 18 18 18 18 18 18 18 17 17 17 17 17 17 17 17 16 16 16 16 15 15 15 15 15 14 14
11 11 11 11 13 14 15 16 17 17 17 17 17 17 17 17 17 18 17 18 18 18 18 18 18 17 17 17 17 17 17 17 17 16 16 16 16 15 15 15 15 15 14 14
10 11 10 11 12 14 15 16 17 17 17 17 17 17 17 17 17 17 17 17 17 18 18 18 17 17 17 17 17 17 17 17 17 16 16 16 16 15 15 15 15 14 14 14
10 10 10 11 11 13 15 16 16 16 17 17 17 17 17 17 17 17 17 17 17 17 17 17 17 17 17 17 17 17 17 17 16 16 16 16 16 15 15 15 14 14 14 14
9 10 10 11 12 12 14 15 15 16 16 16 16 16 16 17 17 17 17 17 17 17 17 17 17 17 17 17 17 17 16 16 16 16 16 16 16 15 15 15 14 14 14 13
Wind_Speed
2 4 3 5 6 4 3 3 2 4 2 1 3 6 7 4 5 6 6 7 8 10 6 4 5 6 6 6 7 6 6 5 4 3 2 2 2 1 2 2 3 4 5 5
4 3 6 3 4 3 3 2 2 3 2 1 3 6 6 4 6 8 9 9 9 7 4 5 5 6 7 7 7 7 7 6 5 3 3 2 3 2 1 1 3 4 4 4
6 4 3 4 3 4 3 5 4 3 3 3 2 6 5 4 3 4 6 7 8 9 9 8 7 7 7 7 8 8 7 6 5 4 3 3 3 3 2 2 1 2 3 4
4 4 2 4 4 6 4 4 4 2 1 3 2 3 7 5 5 5 6 7 8 8 8 8 8 8 8 8 7 7 6 6 4 4 4 5 3 2 1 1 1 2 3 4
4 3 4 5 5 5 4 1 2 1 2 1 2 1 7 4 5 7 7 7 8 8 10 10 10 10 8 7 7 7 7 6 5 4 5 5 3 2 2 2 2 2 2 3
4 2 4 5 2 3 4 5 5 5 4 1 3 3 6 4 6 6 5 5 5 7 8 8 8 7 7 6 7 7 7 5 5 5 5 5 5 5 4 3 2 2 1 1
2 2 1 2 2 2 5 5 3 3 2 4 3 3 7 7 6 6 6 6 4 5 6 7 8 8 9 9 9 8 8 6 5 5 5 5 5 6 5 4 3 3 1 1
2 4 3 2 4 4 4 7 7 4 4 4 2 4 7 6 5 4 4 4 2 3 5 7 9 10 10 11 10 9 9 7 6 6 5 4 5 4 3 4 3 3 2 2
5 5 3 1 2 7 5 3 5 5 2 1 5 6 8 3 4 3 3 1 2 3 4 6 7 8 9 10 11 11 10 8 7 7 5 4 4 4 4 4 3 3 2 2
5 3 3 1 4 2 6 8 5 5 3 3 5 4 5 6 6 5 3 3 3 2 3 4 6 7 8 9 8 8 8 7 6 6 6 5 4 4 4 4 4 3 2 3
2 3 2 1 3 4 3 4 5 4 4 4 3 6 6 7 6 5 5 4 3 3 4 5 5 6 7 7 8 8 7 6 6 6 5 5 4 4 4 4 4 3 3 3
2 3 2 4 4 3 4 6 7 5 4 4 3 7 6 5 5 4 4 3 2 3 3 4 5 6 7 7 7 7 7 7 7 7 6 5 5 5 5 4 4 4 4 3
3 4 1 3 3 1 2 3 4 5 4 5 5 7 5 2 2 2 3 3 2 1 2 3 5 5 6 7 7 7 7 7 6 6 6 5 5 6 6 5 5 5 4 4
2 3 6 8 7 4 3 3 4 4 4 5 8 8 8 5 5 5 4 3 2 3 4 5 5 5 6 6 7 7 7 7 7 6 6 6 6 6 6 5 5 5 5 5
2 3 5 6 5 5 6 7 7 7 8 8 8 8 10 8 7 5 3 2 2 3 4 5 6 5 5 6 6 6 7 7 7 7 7 6 6 5 5 6 5 5 5 5
2 2 2 4 4 5 7 9 10 9 8 8 7 9 8 6 3 3 3 3 4 5 5 5 6 5 6 7 6 6 7 7 7 7 7 6 6 6 6 6 6 6 5 4
1 2 1 4 4 2 8 10 10 8 7 8 9 9 4 3 4 5 5 5 6 6 6 6 6 7 7 7 8 8 8 7 7 7 6 6 6 7 7 7 7 6 6 5
5 3 2 2 1 7 9 5 7 8 8 8 7 7 6 6 6 5 5 6 6 6 6 6 6 6 6 6 6 7 7 8 8 7 7 6 7 7 7 7 7 6 5 5
8 7 3 3 4 7 8 5 7 6 7 7 8 7 5 3 2 4 3 5 6 7 6 6 6 6 5 6 7 7 7 7 7 7 7 7 8 8 8 8 7 5 5 5
4 5 5 4 4 7 7 4 4 4 6 5 7 6 3 3 1 5 4 3 4 3 4 4 4 4 5 6 7 8 8 8 8 8 7 7 8 8 8 8 7 5 5 5
5 4 7 7 6 8 8 4 4 5 7 4 6 6 5 6 7 5 3 3 3 3 3 4 5 5 6 6 8 8 8 9 8 7 7 7 7 8 8 7 6 6 6 6
8 6 7 6 6 9 5 5 7 7 3 3 5 5 5 5 4 2 2 3 3 3 3 5 5 4 4 6 8 8 8 7 7 7 8 7 7 7 7 7 6 6 7 7
7 8 7 9 9 6 4 6 5 4 3 3 4 4 5 4 4 3 3 3 3 4 4 4 5 5 4 6 8 9 7 7 8 8 8 7 7 6 7 8 7 6 5 5
4 3 4 5 8 7 6 6 4 4 5 4 4 4 5 5 4 3 3 3 3 3 4 4 5 5 5 5 6 7 6 8 9 9 8 7 7 7 6 6 6 6 6 6
6 3 4 7 7 5 5 6 5 4 4 3 3 4 6 6 5 4 3 4 4 4 4 5 6 6 6 5 5 5 7 8 8 8 7 7 7 7 7 6 5 6 6 7
6 6 6 7 6 5 7 6 5 5 6 5 4 4 4 5 5 4 4 4 4 4 4 5 5 5 5 5 5 5 7 9 9 8 7 6 6 6 6 6 3 2 3 6
Wind_Direction
65 94 198 211 191 179 168 167 229 260 265 167 239 260 268 238 214 224 225 221 226 231 233 197 183 172 165 163 160 161 157 153 139 128 124 113 104 72 57 52 79 108 122 130
58 236 230 191 170 166 168 184 250 289 310 190 260 278 275 234 220 221 219 217 220 227 213 188 177 172 176 176 173 170 170 166 165 158 148 138 127 109 92 45 65 85 113 132
188 237 194 157 163 175 199 198 221 248 346 15 341 320 306 286 258 244 231 219 214 212 207 195 186 184 179 182 181 178 173 164 162 151 122 97 76 62 51 47 49 49 96 112
227 248 166 164 198 178 232 221 203 211 70 306 17 300 297 293 297 266 247 230 221 213 203 194 188 186 187 188 178 169 164 158 153 149 146 148 147 152 174 162 107 64 79 101
232 203 181 202 216 179 205 142 140 151 154 328 352 220 289 314 291 278 264 243 228 211 200 195 193 190 186 176 167 161 154 154 157 156 157 154 152 157 136 115 98 75 60 83
240 228 193 206 200 158 134 78 57 49 73 304 257 194 282 262 248 274 276 262 236 211 201 196 186 173 167 160 158 156 154 159 160 156 158 163 165 159 145 141 134 111 77 63
296 287 260 145 103 64 99 99 41 4 5 259 264 204 251 257 249 247 261 266 248 205 189 185 178 175 170 170 171 167 162 165 163 157 165 174 175 173 168 167 160 145 119 100
182 271 242 181 166 166 160 144 156 192 225 279 305 240 256 266 276 268 262 260 226 186 186 190 189 183 178 176 173 169 171 171 168 165 172 175 176 176 174 169 163 165 169 180
178 245 284 220 163 144 140 153 161 139 156 272 281 291 303 292 320 330 336 325 231 204 192 193 189 183 177 177 178 175 174 174 175 172 164 164 171 177 170 163 160 166 170 163
154 208 280 285 80 56 145 141 108 126 158 252 289 280 262 280 288 304 313 286 260 224 200 193 184 180 176 173 171 171 173 175 173 169 169 174 175 178 162 150 156 159 160 141
114 157 295 47 165 176 118 118 121 127 154 166 254 271 233 233 247 259 266 259 239 210 205 198 182 170 163 159 163 170 174 170 171 173 173 165 169 167 157 158 171 168 158 143
134 131 220 249 262 205 167 161 151 161 204 181 190 267 272 245 249 251 267 263 248 213 192 178 164 155 159 165 171 176 177 177 181 175 169 169 167 163 163 169 171 163 157 146
140 130 116 330 327 21 133 148 147 139 138 170 190 261 300 312 305 288 272 266 238 177 151 141 151 163 172 177 179 178 178 181 177 168 166 168 169 168 172 174 165 156 150 141
150 152 186 205 218 211 231 209 172 144 175 206 222 250 286 293 287 283 273 257 205 178 166 161 168 179 183 183 182 180 180 175 171 167 169 177 180 180 176 169 161 155 150 146
107 189 222 236 238 228 235 226 202 200 195 199 232 240 258 260 257 257 248 231 191 183 181 181 182 183 185 185 185 182 182 174 169 167 174 182 178 172 162 161 161 152 150 155
58 157 228 253 243 239 254 241 218 219 211 215 235 255 257 262 257 247 225 205 212 209 205 200 190 184 195 192 189 183 184 179 168 172 178 171 164 163 162 161 157 149 149 148
135 125 146 253 267 285 253 230 211 210 206 192 215 234 248 253 244 235 224 213 211 214 208 203 200 199 203 198 188 185 181 169 166 170 170 166 162 161 165 160 152 155 157 152
178 156 170 228 199 233 244 228 204 211 227 211 214 225 224 233 245 241 216 209 218 213 207 208 206 206 203 193 184 174 165 166 168 168 168 167 161 161 157 154 160 161 154 156
193 171 170 178 223 269 285 240 185 191 239 223 214 223 228 244 321 291 239 212 213 208 204 205 202 197 192 185 174 163 162 164 167 171 171 170 166 163 162 164 167 161 152 155
165 167 168 175 201 235 245 235 193 161 247 231 197 206 202 133 199 262 261 224 216 209 200 189 178 173 179 179 164 161 166 168 178 178 173 167 166 167 169 170 164 155 154 158
153 167 192 199 221 256 252 237 140 182 235 216 192 199 188 193 215 247 257 231 211 200 191 174 167 176 186 172 162 167 172 184 185 169 160 161 164 166 164 159 156 150 150 146
179 178 192 182 210 245 240 160 185 215 221 194 199 199 197 214 239 253 234 224 207 193 177 168 170 181 178 168 166 172 185 185 166 159 159 163 162 163 158 151 152 150 149 148
206 198 190 196 218 238 218 213 225 192 197 214 207 220 202 208 231 248 245 238 216 193 181 175 171 171 175 174 174 180 185 165 158 157 162 164 160 157 153 155 155 150 154 159
251 202 189 232 250 250 252 248 242 222 221 229 223 221 208 213 221 226 237 238 222 199 186 174 164 170 184 185 183 183 169 160 159 162 163 158 156 156 154 157 161 164 169 170
229 206 217 245 265 274 256 244 247 256 251 244 253 235 218 208 214 213 225 231 219 201 186 178 177 182 188 184 184 173 163 158 160 163 164 161 161 160 160 162 170 177 186 185
213 205 209 235 237 230 249 256 257 252 250 238 239 249 240 210 208 210 220 222 213 198 183 178 182 181 180 174 179 176 169 164 161 164 168 168 164 163 161 157 141 137 171 183
Height
1511 1517 1521 1519 1519 1520 1523 1526 1528 1524 1518 1520 1521 1521 1517 1515 1516 1516 1517 1518 1519 1520 1522 1524 1526 1528 1530 1532 1534 1536 1537 1539 1540 1541 1542 1543 1544 1545 1545 1546 1547 1548 1549 1549
1516 1518 1513 1514 1516 1519 1522 1526 1526 1522 1517 1519 1521 1520 1515 1514 1513 1513 1514 1514 1516 1518 1520 1522 1524 1526 1528 1530 1533 1535 1537 1538 1540 1541 1542 1543 1544 1545 1546 1547 1547 1548 1549 1550
1515 1513 1510 1513 1517 1520 1522 1525 1525 1524 1520 1519 1522 1524 1517 1512 1511 1511 1511 1512 1513 1515 1516 1519 1521 1524 1526 1529 1531 1534 1536 1538 1540 1541 1543 1544 1544 1545 1546 1547 1548 1548 1549 1550
1512 1510 1510 1513 1516 1517 1524 1517 1519 1521 1528 1533 1528 1539 1522 1515 1512 1509 1508 1509 1510 1511 1514 1516 1519 1521 1524 1527 1530 1533 1535 1537 1539 1541 1542 1543 1544 1545 1546 1547 1548 1549 1549 1550
1511 1508 1510 1513 1512 1513 1516 1515 1518 1521 1527 1534 1531 1537 1528 1517 1514 1508 1506 1505 1506 1508 1510 1512 1515 1519 1522 1526 1529 1531 1534 1536 1538 1540 1542 1543 1544 1545 1546 1547 1548 1549 1550 1550
1507 1505 1506 1507 1507 1509 1512 1518 1523 1528 1533 1543 1534 1537 1533 1520 1512 1506 1503 1503 1503 1505 1507 1510 1514 1517 1521 1524 1527 1530 1532 1535 1537 1539 1540 1542 1544 1545 1546 1547 1548 1549 1550 1550
1510 1506 1504 1504 1509 1511 1514 1527 1542 1544 1550 1546 1532 1534 1528 1510 1505 1503 1502 1501 1501 1503 1505 1507 1511 1514 1518 1521 1525 1528 1530 1533 1535 1537 1539 1541 1543 1544 1545 1547 1548 1549 1550 1551
1518 1518 1506 1503 1507 1513 1516 1523 1541 1549 1551 1545 1533 1534 1518 1504 1501 1500 1500 1499 1500 1501 1503 1505 1508 1511 1515 1518 1522 1525 1528 1531 1534 1536 1538 1540 1542 1544 1545 1547 1548 1549 1550 1551
1516 1516 1504 1502 1502 1506 1516 1522 1523 1537 1541 1545 1538 1528 1513 1501 1500 1499 1498 1498 1499 1500 1502 1504 1507 1510 1513 1516 1520 1523 1527 1530 1532 1535 1537 1539 1541 1543 1545 1546 1548 1549 1550 1551
1508 1515 1507 1503 1502 1505 1508 1516 1528 1536 1546 1549 1539 1531 1523 1507 1503 1499 1499 1498 1498 1500 1501 1503 1505 1508 1511 1515 1519 1522 1526 1528 1531 1534 1536 1538 1540 1543 1544 1546 1548 1549 1550 1551
1506 1514 1512 1507 1507 1510 1513 1517 1524 1533 1536 1545 1545 1534 1507 1503 1500 1499 1498 1497 1498 1499 1500 1501 1503 1506 1510 1514 1517 1520 1524 1527 1530 1532 1535 1537 1539 1542 1544 1545 1547 1549 1550 1551
1506 1514 1517 1511 1504 1502 1506 1511 1519 1530 1535 1537 1540 1530 1499 1498 1497 1497 1496 1497 1497 1498 1499 1500 1503 1505 1509 1512 1516 1519 1522 1525 1528 1531 1533 1536 1538 1541 1542 1544 1546 1548 1550 1551
1506 1514 1522 1518 1514 1508 1507 1509 1513 1520 1529 1537 1537 1524 1497 1496 1496 1496 1496 1496 1497 1498 1499 1500 1502 1504 1507 1510 1514 1516 1520 1523 1526 1529 1531 1534 1537 1539 1541 1543 1545 1547 1549 1550
1502 1510 1516 1518 1513 1509 1509 1509 1511 1517 1527 1530 1525 1514 1501 1497 1496 1495 1495 1495 1496 1497 1498 1499 1501 1503 1506 1509 1512 1514 1518 1521 1524 1527 1530 1532 1535 1537 1540 1542 1544 1546 1548 1549
1501 1508 1507 1505 1503 1503 1504 1504 1507 1510 1513 1519 1513 1510 1500 1496 1494 1494 1494 1494 1495 1496 1496 1498 1500 1502 1505 1507 1510 1512 1515 1519 1521 1524 1527 1530 1533 1535 1538 1540 1542 1544 1546 1548
1503 1507 1506 1505 1501 1501 1502 1499 1501 1502 1504 1506 1506 1503 1494 1492 1492 1492 1492 1492 1493 1493 1494 1496 1498 1500 1503 1505 1508 1510 1513 1516 1519 1522 1525 1528 1530 1533 1536 1538 1540 1543 1545 1547
1505 1508 1511 1511 1504 1502 1504 1494 1495 1496 1495 1497 1501 1496 1491 1491 1490 1489 1490 1490 1490 1491 1492 1494 1495 1498 1500 1503 1506 1508 1511 1514 1517 1520 1523 1525 1528 1531 1533 1536 1538 1541 1543 1545
1504 1508 1514 1513 1508 1511 1495 1485 1486 1489 1489 1488 1488 1487 1487 1487 1487 1486 1487 1488 1488 1489 1490 1492 1493 1495 1498 1501 1504 1506 1509 1512 1515 1518 1520 1523 1526 1528 1531 1534 1536 1539 1542 1544
1498 1505 1513 1514 1512 1503 1490 1482 1482 1486 1487 1482 1483 1484 1484 1485 1485 1484 1484 1485 1486 1487 1488 1490 1491 1493 1496 1498 1501 1504 1507 1510 1512 1515 1518 1521 1523 1526 1529 1532 1535 1537 1540 1542
1495 1499 1508 1511 1510 1506 1488 1478 1476 1481 1486 1479 1479 1481 1482 1483 1488 1484 1482 1483 1484 1485 1486 1488 1490 1491 1494 1496 1499 1502 1504 1507 1510 1512 1515 1519 1521 1524 1527 1530 1533 1535 1538 1540
1497 1500 1504 1506 1505 1495 1479 1475 1477 1489 1484 1475 1475 1477 1479 1480 1481 1481 1480 1481 1482 1483 1484 1486 1487 1489 1491 1494 1496 1499 1502 1505 1508 1511 1514 1516 1519 1522 1525 1528 1531 1533 1536 1538
1490 1495 1498 1501 1501 1493 1473 1474 1477 1475 1471 1471 1472 1474 1476 1477 1477 1478 1478 1478 1479 1480 1481 1483 1485 1487 1489 1491 1494 1496 1499 1503 1506 1509 1512 1514 1517 1520 1523 1526 1528 1531 1533 1536
1482 1481 1483 1484 1481 1471 1469 1469 1468 1468 1469 1469 1470 1472 1474 1474 1475 1475 1475 1476 1476 1477 1479 1481 1483 1485 1487 1489 1491 1494 1497 1500 1503 1507 1509 1512 1515 1518 1520 1523 1525 1528 1530 1532
1477 1475 1477 1476 1470 1467 1466 1466 1466 1467 1467 1467 1468 1470 1471 1471 1472 1472 1473 1473 1474 1475 1476 1478 1480 1482 1484 1487 1489 1492 1495 1498 1501 1504 1507 1509 1512 1515 1517 1520 1523 1525 1527 1529
1472 1473 1472 1470 1466 1464 1462 1462 1463 1464 1464 1465 1466 1467 1468 1468 1469 1469 1470 1470 1471 1472 1474 1476 1477 1479 1482 1484 1487 1489 1492 1495 1498 1501 1504 1506 1509 1512 1514 1517 1520 1522 1524 1526
1467 1468 1469 1465 1462 1462 1459 1459 1460 1461 1460 1461 1462 1463 1464 1465 1465 1466 1467 1468 1469 1470 1471 1473 1475 1477 1479 1481 1484 1486 1489 1492 1495 1498 1500 1503 1506 1508 1511 1513 1516 1519 1521 1523